View from above orbital plane
|
View from above satellite
|
Ground track
|
The orbit data is extracted from the following two-line orbital elements,
1 42010U 17008BQ 21023.76752108 .00002341 00000-0 90658-4 0 9999
2 42010 97.3408 94.0270 0005875 255.0927 104.9662 15.27149006218438
Epoch (UTC): | 23 January 2021 18:25:13 |
Eccentricity: | 0.0005875 |
inclination: | 97.3408° |
perigee height: | 480 km |
apogee height: | 488 km |
right ascension of ascending node: | 94.0270° |
argument of perigee: | 255.0927° |
revolutions per day: | 15.27149006 |
mean anomaly at epoch: | 104.9662° |
orbit number at epoch: | 21843 |
The dashed part of the orbit path shows where the satellite is in the earth's shadow,
|
|